INTELSAT 23 (IS-23)

Last updated on Tue Jul 01 2025 00:02:45 GMT+0000 (Coordinated Universal Time)

1 38867U 12057A 25181.48590867 -.00000285 00000+0 00000+0 0 9995 2 38867 0.0430 105.6649 0001482 314.6960 340.3170 1.00272023 46427
UTC large
Height (km)
Speed (km/s)
/
Latitude / Longitude
Inclination (degrees)
Orbital Period (minutes)
Azimuth
Elevation
Range (km)
Doppler Factor

Next 0 passes for location: London (51.5072 / 0.1276)

Sorry there are no passes over London.